Location: Malcolm X Square
(37.7810°N, 122.4297°W)
Time: 22:35:33
(UTC+00:00)

Cosmos 1674 - Pass Details

Date: 13 April 2024
Orbit: 440 x 455 km, 82.5° (Epoch: 20 May)

Event Time Altitude Azimuth Distance (km) Brightness Sun altitude
Rises 12:50:11 0° 189° (S) 2,417 5.8 -9.6°
Reaches altitude 10° 12:52:14 10° 191° (SSW) 1,550 4.8 -9.2°
Maximum altitude 12:55:36 74° 277° (W) 461 2.3 -8.6°
Drops below altitude 10° 12:58:59 10° 3° (N) 1,561 5.4 -8.0°
Sets 13:01:04 0° 6° (N) 2,437 6.5 -7.6°
